FENGYUN 1C DEB, 38130

Orbit data source: Space-Track

FENGYUN 1C DEB, 38130 is space debris in SSO originally from a launch on Mon, 10 May 1999 UTC launched from the Taiyaun Space Center, China (TSC). Fengyun 1C debris stems from the Chinese weather satellite Fengyun-1C, which was intentionally destroyed by a Chinese anti-satellite missile in 2007. This event dramatically increased the amount of space debris, with thousands of trackable fragments posing hazards to satellites and human spaceflight. The Fengyun 1C debris cloud has become a focal point in discussions about space sustainability and the need for international regulations to prevent the creation of new debris.

Loading next visibility...
Identifier
38130, 1999-025EQB
Orbit
SSO
Country
Flag of CNCN / PRC
Related business
Manufacturer
Unknown
Mission
Spacecraft
Bus & Motor
Unknown
Mass
Unknown
Launch date (UTC)
1999-05-10 (27 years ago)
Launch vehicle
Unknown
Launch site
Taiyaun Space Center, China (TSC)
Object type
Payload
Rocket body
Debris
Shape & HBR
Unknown shape, 0.1 m
Radar Cross Section
Small (<0.1 m²)

Expand to show TLE details & history
Last TLE update: 1 week ago

TLE from 1 week ago
0 FENGYUN 1C DEB
1 38130U 99025EQB 26247.56057705  .00001012  00000-0  89340-3 0  9997
2 38130  98.5899 279.3498 0204905 228.8643 129.4669 13.78166874729433
Epoch: 2026-09-04T13:27Z
TLE epoch observation values (Epoch: 2026-09-04T13:27:13.857Z)
Latitude
-0°
Longitude
93.85942°
Altitude
1,070.789 km
Speed
7.268 km/s
True Right ascension
18h 37m 23s
True Declination
0° 00' 00"
Sunlit
Object was in daylight at epoch
Visualization orbit readout
Latitude
Unknown
Longitude
Unknown
Altitude
Unknown
Speed
Unknown
Apparent Right ascension
Unknown
Apparent Declination
Unknown
Sunlit
N/A
Visualization observer readout
Local Sidereal Time
03:49:37
Azimuth
Unknown
Elevation
Unknown
Doppler factor
Unknown
Orbital elements
Apogee altitude
1,118.121 km
Perigee altitude
817.085 km
Semi-major axis
7,345.74 km
Eccentricity
0.02049
Inclination
98.5899°
RAAN
279.3498°
Arg. of periapsis
228.8643°
True anomaly
131.25022°
Mean anomaly
129.4669°
Eccentric anomaly
130.36147°
Mean motion
3.44739 °/min
Orbital period
104.43 mins
BSTAR
0.0008934
Loading maneuver chart data...
Computing Atmospheric mass density...
Loading historical data...
Loading historical data...
Loading historical data...
Loading historical data...
Loading historical data...
Loading historical data...
Loading historical data...

Documentation

Showing up to 5 results
|